This demonstration page uses our WeatherBlox Daily Observations layout. Learn more.

Left ArrowRight Arrow

Hourly Observations for August 12, 2022

Temp ( °F °C ) Dew Point ( °F °C ) Humidity (%) Winds ( mph kmh ) Pressure ( in mb ) Visibility ( mi km ) Precip ( " mm )
12:15 am 00:15 Partly Cloudy 72 22 64 18 78 78 NW 8 13 29.99 1016 10 16 0.00 0.00
12:35 am 00:35 Partly Cloudy 72 22 64 18 78 78 N 3 6 29.98 1015 10 16 0.00 0.00
12:55 am 00:55 Clear 72 22 64 18 78 78 NNW 10 17 29.99 1016 10 16 0.00 0.00
1:15 am 01:15 Clear 72 22 64 18 78 78 NNW 8 13 29.99 1016 10 16 0.00 0.00
1:35 am 01:35 Partly Cloudy 73 23 63 17 69 69 NNW 7 11 29.99 1015 10 16 0.00 0.00
1:55 am 01:55 Clear 73 23 63 17 69 69 NNW 7 11 30.00 1016 10 16 0.00 0.00
2:15 am 02:15 Mostly Cloudy 72 22 63 17 73 73 NNW 6 9 29.99 1016 10 16 0.00 0.00
2:35 am 02:35 Mostly Cloudy 72 22 63 17 73 73 NNW 10 17 30.00 1016 10 16 0.00 0.00
2:55 am 02:55 Cloudy with Light Rain 72 22 63 17 73 73 NNW 9 15 30.01 1016 10 16 0.00 0.00
3:15 am 03:15 Cloudy with Light Rain 70 21 64 18 83 83 N 10 17 30.01 1016 10 16 0.00 0.00
3:35 am 03:35 Mostly Cloudy 70 21 63 17 78 78 NNW 7 11 30.01 1016 10 16 0.00 0.00
3:55 am 03:55 Mostly Cloudy 70 21 63 17 78 78 N 5 7 30.01 1016 10 16 0.00 0.00
4:15 am 04:15 Cloudy 70 21 63 17 78 78 N 3 6 30.01 1016 10 16 0.00 0.00
4:35 am 04:35 Mostly Cloudy 70 21 63 17 78 78 N 7 11 30.01 1016 10 16 0.00 0.00
4:55 am 04:55 Mostly Cloudy 70 21 63 17 78 78 NW 8 13 30.02 1017 10 16 0.00 0.00
5:15 am 05:15 Mostly Cloudy 68 20 63 17 83 83 NNW 5 7 30.02 1017 10 16 0.00 0.00
5:35 am 05:35 Mostly Cloudy 70 21 61 16 73 73 NNW 6 9 30.02 1017 10 16 0.00 0.00
5:55 am 05:55 Partly Cloudy 68 20 63 17 83 83 N 5 7 30.02 1017 10 16 0.00 0.00
6:15 am 06:15 Partly Cloudy 70 21 61 16 73 73 N 6 9 30.03 1017 10 16 0.00 0.00
6:35 am 06:35 Mostly Cloudy 70 21 61 16 73 73 N 6 9 30.04 1017 10 16 0.00 0.00
6:55 am 06:55 Partly Cloudy 70 21 61 16 73 73 N 8 13 30.04 1017 10 16 0.00 0.00
7:15 am 07:15 Partly Cloudy 70 21 61 16 73 73 N 7 11 30.04 1017 10 16 0.00 0.00
7:35 am 07:35 Cloudy 70 21 61 16 73 73 N 5 7 30.05 1018 10 16 0.00 0.00
7:55 am 07:55 Mostly Cloudy 70 21 61 16 73 73 N 7 11 30.06 1018 10 16 0.00 0.00
8:15 am 08:15 Sunny 70 21 61 16 73 73 N 7 11 30.06 1018 10 16 0.00 0.00
8:35 am 08:35 Sunny 72 22 61 16 69 69 N 9 15 30.06 1018 10 16 0.00 0.00
8:55 am 08:55 Sunny 72 22 61 16 69 69 NNE 7 11 30.06 1018 10 16 0.00 0.00
9:15 am 09:15 Sunny 73 23 59 15 61 61 NNE 6 9 30.07 1018 10 16 0.00 0.00
9:35 am 09:35 Sunny 75 24 61 16 61 61 N 8 13 30.07 1018 10 16 0.00 0.00
9:55 am 09:55 Sunny 73 23 59 15 61 61 NNE 12 19 30.07 1018 10 16 0.00 0.00
10:15 am 10:15 Sunny 75 24 61 16 61 61 N 9 15 30.07 1018 10 16 0.00 0.00
10:35 am 10:35 Sunny 77 25 61 16 57 57 N 7 11 30.06 1018 10 16 0.00 0.00
10:55 am 10:55 Sunny 77 25 61 16 57 57 N 7 11 30.07 1018 10 16 0.00 0.00
11:15 am 11:15 Sunny 77 25 61 16 57 57 NNW 6 9 30.07 1018 10 16 0.00 0.00
11:35 am 11:35 Partly Cloudy 77 25 63 17 61 61 N 5 7 30.07 1018 10 16 0.00 0.00
11:55 am 11:55 Partly Cloudy 77 25 61 16 57 57 NE 6 9 30.07 1018 10 16 0.00 0.00
12:15 pm 12:15 Partly Cloudy 79 26 61 16 54 54 NNE 7 11 30.07 1018 10 16 0.00 0.00
12:35 pm 12:35 Mostly Cloudy 79 26 61 16 54 54 NNE 5 7 30.07 1018 10 16 0.00 0.00
12:55 pm 12:55 Mostly Cloudy 79 26 59 15 51 51 N 5 7 30.06 1018 10 16 0.00 0.00
1:15 pm 13:15 Partly Cloudy 79 26 63 17 58 58 NE 5 7 30.06 1018 10 16 0.00 0.00
1:35 pm 13:35 Mostly Cloudy 77 25 61 16 57 57 N 9 15 30.06 1018 10 16 0.00 0.00
1:55 pm 13:55 Partly Cloudy 79 26 61 16 54 54 N 8 13 30.05 1018 10 16 0.00 0.00
2:15 pm 14:15 Mostly Cloudy 79 26 59 15 51 51 NNE 8 13 30.05 1018 10 16 0.00 0.00
2:35 pm 14:35 Mostly Cloudy 81 27 61 16 51 51 N 7 11 30.05 1018 10 16 0.00 0.00
2:55 pm 14:55 Partly Cloudy 81 27 61 16 51 51 N 10 17 30.04 1017 10 16 0.00 0.00
3:15 pm 15:15 Partly Cloudy 81 27 59 15 48 48 NNW 10 17 30.04 1017 10 16 0.00 0.00
3:35 pm 15:35 Mostly Cloudy 81 27 57 14 45 45 N 13 20 30.04 1017 10 16 0.00 0.00
3:55 pm 15:55 Partly Cloudy 81 27 57 14 45 45 NNW 14 22 30.04 1017 10 16 0.00 0.00
4:15 pm 16:15 Sunny 81 27 54 12 39 39 N 10 17 30.03 1017 10 16 0.00 0.00
4:35 pm 16:35 Sunny 81 27 55 13 42 42 N 10 17 30.03 1017 10 16 0.00 0.00
4:55 pm 16:55 Sunny 81 27 54 12 39 39 NNW 12 19 30.04 1017 10 16 0.00 0.00
5:15 pm 17:15 Sunny 81 27 54 12 39 39 N 10 17 30.04 1017 10 16 0.00 0.00
5:35 pm 17:35 Sunny 81 27 54 12 39 39 N 12 19 30.04 1017 10 16 0.00 0.00
5:55 pm 17:55 Sunny 81 27 55 13 42 42 NNW 10 17 30.04 1017 10 16 0.00 0.00
6:15 pm 18:15 Sunny 81 27 55 13 42 42 NNW 8 13 30.04 1017 10 16 0.00 0.00
6:35 pm 18:35 Sunny 79 26 55 13 45 45 NNW 9 15 30.04 1017 10 16 0.00 0.00
6:55 pm 18:55 Sunny 79 26 55 13 45 45 NNW 6 9 30.04 1017 10 16 0.00 0.00
7:15 pm 19:15 Sunny 79 26 57 14 48 48 NNW 5 7 30.04 1017 10 16 0.00 0.00
7:35 pm 19:35 Sunny 77 25 57 14 50 50 NW 6 9 30.06 1018 10 16 0.00 0.00
7:55 pm 19:55 Sunny 75 24 57 14 54 54 NW 3 6 30.06 1018 10 16 0.00 0.00
8:15 pm 20:15 Clear 72 22 59 15 65 65 NW 5 7 30.06 1018 10 16 0.00 0.00
8:35 pm 20:35 Clear 72 22 57 14 60 60 Calm 30.06 1018 10 16 0.00 0.00
8:55 pm 20:55 Clear 72 22 59 15 65 65 W 3 6 30.07 1018 10 16 0.00 0.00
9:15 pm 21:15 Clear 70 21 59 15 69 69 Calm 30.07 1018 10 16 0.00 0.00
9:35 pm 21:35 Clear 70 21 59 15 69 69 Calm 30.07 1018 10 16 0.00 0.00
9:55 pm 21:55 Clear 70 21 59 15 69 69 Calm 30.08 1019 10 16 0.00 0.00
10:15 pm 22:15 Clear 70 21 59 15 69 69 Calm 30.08 1019 10 16 0.00 0.00
10:35 pm 22:35 Clear 68 20 59 15 73 73 Calm 30.08 1019 10 16 0.00 0.00
10:55 pm 22:55 Clear 68 20 59 15 73 73 Calm 30.08 1019 10 16 0.00 0.00
11:15 pm 23:15 Clear 66 19 59 15 78 78 Calm 30.09 1019 10 16 0.00 0.00
11:35 pm 23:35 Clear 63 17 61 16 94 94 Calm 30.10 1019 10 16 0.00 0.00
11:55 pm 23:55 Clear 63 17 59 15 88 88 Calm 30.10 1019 10 16 0.00 0.00

Powered by AerisWeather